User: anonymous   Login
Location: Sun City Center
(27.6996°N, 82.3528°W)
Time: 20:21:19
(UTC-04:00)
Language:

Cosmos 2084 Rocket - Orbit

View from above orbital plane
View from above orbital plane
View from above satellite
View from above satellite

Ground track
Ground track

The orbit data is extracted from the following two-line orbital elements,

1 20666U 90055D   15243.90000129 +.00000870 +00000-0 +96203-4 0  9994
2 20666 062.7851 174.5481 0111125 043.5747 317.4057 14.91057736363969
Epoch (UTC): 31 August 2015 21:36:00
Eccentricity: 0.0111125
inclination: 62.7851°
perigee height: 517 km
apogee height: 672 km
right ascension of ascending node: 174.5481°
argument of perigee: 43.5747°
revolutions per day: 14.91057736
mean anomaly at epoch: 317.4057°
orbit number at epoch: 36396

The dashed part of the orbit path shows where the satellite is in the earth's shadow,  

DLR